[[{"header":{"parameterUnit":"m.s-1","parameterCategory":1,"la1":30.2992,"la2":30.254,"lo1":-89.0895,"lo2":-89.0443,"dy":0.0025,"dx":0.0025,"nx":19,"ny":19,"refTime":"2026-04-23T09:00:00:Z","depth":0,"parameterNumber":2,"parameterNumberName":"U-component_of_WINDS"},"data":[0,0,0,-2.5448,-2.5452,-2.5624,-2.5624,-2.5831,-2.5832,0,0,0,0,0,0,0,0,0,0,0,-2.5386,-2.5387,-2.5448,-2.5452,-2.5624,-2.5624,-2.583,-2.5832,0,0,0,0,0,0,0,0,0,0,0,-2.5385,-2.5387,-2.5388,-2.5452,-2.5623,-2.5624,-2.583,-2.5706,0,0,0,0,0,0,0,0,0,0,-2.5541,-2.5472,-2.5386,-2.5388,-2.5453,-2.5623,-2.5625,-2.57,-2.5713,-2.5746,0,-2.5769,0,-2.5803,-2.5845,-2.5845,0,0,0,-2.5461,-2.5461,-2.5517,-2.5388,-2.5455,-2.5623,-2.5549,-2.5708,-2.5723,-2.5763,-2.5772,-2.578,-2.5807,-2.5846,-2.5847,-2.5995,-2.5995,0,0,-2.5452,-2.5411,-2.5506,-2.5526,-2.5495,-2.5543,-2.5554,-2.5717,-2.5725,-2.5773,-2.5785,-2.581,-2.5847,-2.5849,-2.5995,-2.5995,0,0,0,-2.5418,-2.5404,-2.5457,-2.5517,-2.5549,-2.5548,-2.556,-2.5718,-2.5738,-2.5787,-2.5813,-2.5848,-2.5851,-2.5995,-2.5995,-2.5966,0,0,0,-2.5413,-2.5385,-2.5452,-2.5429,-2.5545,-2.5635,-2.5557,-2.5727,-2.5746,-2.5812,-2.5848,-2.5853,-2.5994,-2.5995,-2.5966,-2.5959,0,0,0,-2.5379,-2.5381,-2.5401,-2.5427,-2.5499,-2.5633,-2.5663,-2.5732,-2.5761,-2.5846,-2.5853,-2.5994,-2.5995,-2.5966,-2.5959,-2.5985,0,0,0,-2.5331,-2.5375,-2.54,-2.546,-2.5497,-2.5613,-2.5663,-2.5752,-2.5821,-2.5849,-2.5994,-2.5995,-2.5966,-2.596,-2.5985,-2.5997,-2.5999,0,0,-2.5364,-2.5377,-2.5416,-2.5443,-2.5544,-2.559,-2.5689,-2.5792,-2.5839,-2.5941,-2.5945,-2.5966,-2.5959,-2.5985,-2.6026,-2.6027,0,0,0,-2.5413,-2.5439,-2.5475,-2.5537,-2.5615,-2.5682,-2.5774,-2.5813,-2.5901,-2.5882,-2.5984,-2.5982,-2.5998,-2.6006,-2.6007,-2.6024,-2.5997,-2.5997,-2.5997,-2.54,-2.5456,-2.5523,-2.5599,-2.566,-2.5754,-2.5809,-2.5877,-2.5918,-2.5941,-2.5971,-2.5989,-2.5997,-2.5998,-2.6014,-2.5984,-2.5984,-2.5984,-2.5984,-2.5453,-2.5499,-2.555,-2.5633,-2.5693,-2.5765,-2.5859,-2.5885,-2.5962,-2.5971,-2.5989,-2.5991,-2.5997,-2.6015,-2.5982,-2.5983,-2.5983,-2.5983,-2.5983,-2.5449,-2.5481,-2.5526,-2.5621,-2.569,-2.5768,-2.5839,-2.5892,-2.5943,-2.5961,-2.5998,-2.5999,-2.6005,-2.5975,-2.5975,-2.5975,-2.5975,-2.5975,-2.5975,-2.5427,-2.5479,-2.553,-2.5617,-2.5664,-2.5733,-2.583,-2.5879,-2.5947,-2.5981,-2.5981,-2.6019,-2.5987,-2.5977,-2.5977,-2.5976,-2.5976,-2.5976,-2.5976,-2.5457,-2.5458,-2.5537,-2.5584,-2.5691,-2.5756,-2.5823,-2.5919,-2.5968,-2.6001,-2.6037,-2.6004,-2.6023,-2.6023,-2.6014,-2.6024,-2.6024,-2.6024,-2.6024,-2.5453,-2.5467,-2.5559,-2.5631,-2.5708,-2.5777,-2.5867,-2.5944,-2.6024,-2.6058,-2.6065,-2.606,-2.6057,-2.6077,-2.6076,-2.6069,-2.6092,-2.6093,-2.6093,-2.5473,-2.5498,-2.5562,-2.5637,-2.5725,-2.58,-2.5887,-2.597,-2.6062,-2.6097,-2.6086,-2.6083,-2.6075,-2.607,-2.6101,-2.6098,-2.6086,0,0]},{"header":{"parameterUnit":"m.s-1","parameterCategory":1,"la1":30.2992,"la2":30.254,"lo1":-89.0895,"lo2":-89.0443,"dy":0.0025,"dx":0.0025,"nx":19,"ny":19,"refTime":"2026-04-23T09:00:00:Z","depth":0,"parameterNumber":3,"parameterNumberName":"V-component_of_WINDS"},"data":[0,0,0,4.6968,4.6973,4.7206,4.7207,4.7496,4.7498,0,0,0,0,0,0,0,0,0,0,0,4.6896,4.6898,4.6968,4.6973,4.7206,4.7207,4.7495,4.7498,0,0,0,0,0,0,0,0,0,0,0,4.6895,4.6897,4.6899,4.6974,4.7206,4.7207,4.7495,4.7322,0,0,0,0,0,0,0,0,0,0,4.7097,4.7027,4.6897,4.69,4.6976,4.7205,4.7207,4.7313,4.7332,4.7387,0,4.7437,0,4.7472,4.7517,4.7518,0,0,0,4.6975,4.7012,4.7078,4.69,4.6978,4.7205,4.7101,4.7324,4.7346,4.7412,4.7441,4.7452,4.7477,4.7519,4.752,4.7837,4.7838,0,0,4.6962,4.6935,4.7063,4.7091,4.7058,4.7094,4.7109,4.7337,4.7366,4.7442,4.7459,4.7482,4.7521,4.7523,4.7835,4.7837,0,0,0,4.6924,4.6926,4.6987,4.7079,4.7122,4.7101,4.7118,4.7356,4.7378,4.7462,4.7485,4.7523,4.7526,4.7834,4.7836,4.788,0,0,0,4.6916,4.6904,4.6981,4.6967,4.7118,4.7242,4.7131,4.7362,4.7389,4.7484,4.7523,4.7529,4.7832,4.7835,4.7876,4.7905,0,0,0,4.6882,4.69,4.6933,4.6965,4.7064,4.7239,4.7275,4.7368,4.7403,4.7518,4.753,4.7831,4.7834,4.7872,4.7899,4.7981,0,0,0,4.6836,4.6967,4.6933,4.7088,4.7062,4.7266,4.7274,4.7426,4.753,4.7524,4.7833,4.7836,4.787,4.7895,4.7977,4.8046,4.8072,0,0,4.6986,4.6984,4.7078,4.7054,4.7257,4.7232,4.7441,4.7561,4.7595,4.7753,4.7762,4.7877,4.7898,4.798,4.8229,4.825,0,0,0,4.7116,4.7183,4.7243,4.7342,4.7439,4.7523,4.7615,4.7659,4.7796,4.7672,4.793,4.7943,4.7992,4.8027,4.8044,4.8088,4.785,4.785,4.785,4.7289,4.7329,4.7486,4.7554,4.765,4.7744,4.7825,4.7901,4.791,4.797,4.8017,4.8164,4.8203,4.8217,4.8262,4.8057,4.8057,4.8058,4.8058,4.7513,4.7614,4.7626,4.7783,4.7824,4.7955,4.805,4.8053,4.818,4.8131,4.8177,4.812,4.8239,4.828,4.8061,4.8061,4.806,4.806,4.806,4.7631,4.7686,4.774,4.7889,4.7999,4.8062,4.8185,4.8216,4.8246,4.8291,4.8345,4.8344,4.8347,4.8315,4.8315,4.8316,4.8316,4.8317,4.8317,4.7731,4.7791,4.7892,4.8007,4.8075,4.817,4.8266,4.8334,4.8417,4.843,4.843,4.8433,4.8243,4.8195,4.8325,4.8324,4.8323,4.8322,4.8321,4.7944,4.7901,4.8057,4.8126,4.8264,4.8371,4.8411,4.8547,4.8607,4.8666,4.8661,4.8515,4.8515,4.8501,4.8461,4.8652,4.8652,4.8652,4.8652,4.8043,4.8047,4.8214,4.8323,4.8432,4.8484,4.8658,4.8734,4.8805,4.8845,4.8822,4.8772,4.8756,4.8765,4.8745,4.8709,4.8959,4.8959,4.8959,4.8176,4.8192,4.8335,4.8407,4.8517,4.861,4.8775,4.8898,4.8969,4.8972,4.8877,4.8864,4.8783,4.8755,4.8755,4.8724,4.8657,0,0]}]]